Tracking 19281 objects as of 17-Nov-2018
HD Live streaming from Space Station
objects crossing your sky now

CHINASAT 5A (CHINASTAR1)

Track CHINASAT 5A (CHINASTAR1) now!
CHINASAT 5A (CHINASTAR1) is classified as:


NORAD ID: 25354
Int'l Code: 1998-033A
Perigee: 36,138.2 km
Apogee: 36,172.8 km
Inclination: 2.4 °
Period: 1,454.6 minutes
Semi major axis: 42526 km
RCS: 0.003 m2 (small)
Launch date: May 30, 1998
Source: People's Republic of China (PRC)
Launch site: Xichang Space Center, China (XSC)

24 C-band, 24 Ku-band; voice and video communications throughout China and neighboring countries.
aabbcc
Your satellite tracking list
Your tracking list is empty




NASA's NSSDC Master Catalog

Two Line Element Set (TLE):
1 25354U 98033A   18320.55290475 -.00000250 +00000-0 +00000-0 0  9991
2 25354 002.3510 084.2536 0004066 182.4322 119.6989 00.98995142079442
Source of the keplerian elements: AFSPC